Location: Burgerwiesen
(48.6500°N, 15.6167°E)
Time: 03:23:14
(UTC+00:00)

IGS 5A - Pass Details

Date: 09 April 2020
Orbit: 585 x 587 km, 97.6° (Epoch: 19 May)

Event Time Altitude Azimuth Distance (km) Brightness Sun altitude
Exits shadow 20:20:36 66° 229° (SW) 646 3.5 -23.6°
Maximum altitude 20:20:53 69° 258° (WSW) 634 3.6 -23.6°
Drops below altitude 10° 20:25:02 10° 342° (NNW) 1,921 7.0 -24.1°
Sets 20:27:13 0° 345° (NNW) 2,826 8.0 -24.3°
